TimeCOT,TemperatureF,Dew PointF,Humidity,Sea Level PressureIn,VisibilityMPH,Wind Direction,Wind SpeedMPH,Gust SpeedMPH,PrecipitationIn,Events,Conditions,WindDirDegrees,DateUTC
6:00 AM,59.0,55.4,88,30.20,6.2,South,8.1,-,N/A,,Scattered Clouds,190,2013-03-06 11:00:00
7:00 AM,59,56,87,,12,South,8.9,,,,Partly Cloudy,190,2013-03-06 12:00:00
7:00 AM,59.0,55.4,88,30.20,6.2,South,8.1,-,N/A,,Scattered Clouds,190,2013-03-06 12:00:00
8:00 AM,60.8,57.2,88,30.23,6.2,Calm,Calm,-,N/A,,Mostly Cloudy,0,2013-03-06 13:00:00
9:00 AM,62.6,59.0,88,30.26,6.2,Calm,Calm,-,N/A,,Scattered Clouds,0,2013-03-06 14:00:00
10:00 AM,69,61,69,,12,Calm,Calm,,,,Partly Cloudy,,2013-03-06 15:00:00
10:00 AM,68.0,60.8,78,30.27,6.2,Calm,Calm,-,N/A,,Mostly Cloudy,0,2013-03-06 15:00:00
11:00 AM,69.8,62.6,78,30.26,6.2,Calm,Calm,-,N/A,,Scattered Clouds,0,2013-03-06 16:00:00
12:00 PM,71.6,60.8,69,30.22,6.2,North,5.8,-,N/A,,Mostly Cloudy,350,2013-03-06 17:00:00
1:00 PM,75,64,60,,12,North,4.5,,,,Partly Cloudy,0,2013-03-06 18:00:00
1:00 PM,75.2,64.4,69,30.17,6.2,North,4.6,-,N/A,,Scattered Clouds,360,2013-03-06 18:00:00
2:00 PM,75.2,60.8,61,30.13,6.2,NNW,5.8,-,N/A,,Scattered Clouds,340,2013-03-06 19:00:00
3:00 PM,75.2,60.8,61,30.09,6.2,NNW,6.9,-,N/A,,Scattered Clouds,340,2013-03-06 20:00:00
4:00 PM,74,62,59,,12,North,6.7,,,,Partly Cloudy,0,2013-03-06 21:00:00
4:00 PM,73.4,62.6,69,30.08,6.2,North,6.9,-,N/A,,Scattered Clouds,360,2013-03-06 21:00:00
5:00 PM,69.8,62.6,78,30.10,6.2,NE,5.8,-,N/A,,Scattered Clouds,50,2013-03-06 22:00:00
6:00 PM,68.0,62.6,83,30.11,6.2,ENE,4.6,-,N/A,,Scattered Clouds,70,2013-03-06 23:00:00
7:00 PM,65,62,86,,9,Calm,Calm,,,,Partly Cloudy,,2013-03-07 00:00:00
8:00 PM,64.4,62.6,94,30.18,2.5,Calm,Calm,-,N/A,Fog,Patches of Fog,0,2013-03-07 01:00:00
9:00 PM,64.4,62.6,94,30.21,1.2,ENE,5.8,-,N/A,Fog,Patches of Fog,60,2013-03-07 02:00:00